LiveATC.Net - Listen to live air traffic control over the Internet!


ICAO: KGAI  IATA: GAI   Airport: Montgomery County Airpark
City: Gaithersburg   State/Province: Maryland
Country: United States   Continent: North America
KGAI METAR Weather: KGAI 220856Z AUTO 00000KT 10SM CLR M08/M10 A3044 RMK AO2 SLP329 T10781100 57006 FZRANO
KGAI Flight Activity (FlightAware)
KGAI Airport Info   (iFlightPlanner)
KGAI VFR Sectional Chart   (iFlightPlanner) 
KGAI IFR Low Chart   (iFlightPlanner) 

KGAI CTAF/UNICOM
Feed Status: DOWN
Last heard on: 2020-01-18 11:51:22 (3 days 21 hours 51 minutes ago)
Archive Access: KGAI CTAF/UNICOM
FacilityFrequency
Gaithersburg CTAF123.075
Feed sponsored by:

NOTICE

Unauthorized use prohibited. See LiveATC.net Terms of Service


Airport/ARTCC Code
Frequency Search
(e.g., 124.400, 128.75)
Site-wide search
 


Browse Feeds
Top 50 Feeds
Coverage Map
Bad Weather Areas

LiveATC FAQ
Offer LiveATC feed
Contact LiveATC.net
Press Inquiries

LiveATC on iPhone
LiveATC on Android

Windows Phone
Windows 8/10

LiveATC Mobile
(Mobile browser)

ATC Audio Archives
Interesting Recordings

LiveATC Forums


Home Page
About LiveATC.net
Make a Donation
Terms of Use
Privacy Policy

Canadian Air Freqs

AIRMETs/SIGMETs

FAA Airport Status
Nat'l Airspace Status
Arrival Demand Charts


Server Software By:
Icecast.org
Liquidsoap